This is the latest recevied weather packets stored in our database for station/object KD2FKI. If no packets are shown the sender has not sent any weather packets the latest 10 day(s).
| Time | Temp. | Humidity | Pressure | Rain* | Wind** | Luminosity | Snow |
|---|---|---|---|---|---|---|---|
| 1778121038 | 17.22° C | 81% | - | 0 mm | - | - | - |
| 1778120444 | 17.78° C | 82% | - | 0 mm | - | - | - |
| 1778119836 | 17.78° C | 82% | - | 0 mm | - | - | - |
| 1778119239 | 17.78° C | 83% | - | 0 mm | - | - | - |
| 1778118650 | 18.33° C | 85% | - | 0 mm | - | - | - |
| 1778118037 | 18.89° C | 87% | - | 0 mm | - | - | - |
| 1778117447 | 18.89° C | 87% | - | 0 mm | - | - | - |
| 1778116835 | 18.89° C | 86% | - | 0 mm | - | - | - |
| 1778116245 | 19.44° C | 85% | - | 0 mm | - | - | - |
| 1778115632 | 19.44° C | 82% | - | 0 mm | - | - | - |
| 1778115043 | 20° C | 83% | - | 0 mm | - | - | - |
| 1778114429 | 20° C | 86% | - | 0 mm | - | - | - |
| 1778113839 | 20.56° C | 86% | - | 0 mm | - | - | - |
| 1778113245 | 20.56° C | 86% | - | 0 mm | - | - | - |
| 1778112637 | 20.56° C | 84% | - | 0 mm | - | - | - |
| 1778112043 | 21.11° C | 83% | - | 0 mm | - | - | - |
| 1778111435 | 21.11° C | 82% | - | 0 mm | - | - | - |
| 1778110839 | 21.11° C | 82% | - | 0 mm | - | - | - |
| 1778110232 | 21.11° C | 81% | - | 0 mm | - | - | - |
| 1778109637 | 21.67° C | 80% | - | 0 mm | - | - | - |
| 1778109047 | 21.67° C | 80% | - | 0 mm | - | - | - |
| 1778108435 | 21.67° C | 80% | - | 0 mm | - | - | - |
| 1778107843 | 22.22° C | 79% | - | 0 mm | - | - | - |
| 1778107234 | 22.22° C | 79% | - | 0 mm | - | - | - |
| 1778106640 | 21.67° C | 79% | - | 0 mm | - | - | - |
* Rain latest hour (hover to see other rain measurements)
** Current wind speed in m/s (hover to see current wind gust speed)